Probability
5 4 4 5 6 8 11 12 9 4 1 0 0 0 0 0 0 1 2 4 5 5 6 5 3 2 2 3 3 2 2 2 3 4 3 1 0 0 0 0 0 0 0
7 8 7 8 9 12 15 15 10 5 1 0 0 0 0 0 0 1 1 3 5 6 6 5 3 2 2 3 3 3 2 3 4 4 3 2 0 0 0 0 0 0 0
11 12 12 12 12 13 15 14 11 7 4 1 0 0 0 0 1 1 1 2 5 6 7 7 5 3 3 3 3 3 3 3 4 4 3 2 1 0 0 0 0 0 0
14 15 15 14 13 11 11 10 10 9 5 2 1 0 0 1 2 1 1 2 4 6 8 9 8 6 5 5 5 4 4 3 4 3 3 3 2 1 0 0 1 0 0
15 15 15 15 13 10 9 9 9 8 5 2 1 1 1 2 3 3 1 1 2 4 7 10 10 8 7 7 8 7 5 4 4 3 3 3 3 2 1 0 0 0 0
16 14 14 14 12 9 9 11 10 7 5 3 2 2 2 3 5 5 4 2 1 3 6 10 10 9 7 7 8 8 5 4 4 4 3 3 3 2 1 0 0 0 0
17 15 14 15 12 9 10 11 11 7 4 4 4 3 2 2 4 6 5 4 3 3 7 10 11 9 6 5 6 6 5 5 5 4 3 2 2 1 1 0 1 0 0
18 16 17 18 15 11 11 12 11 7 4 4 5 4 2 2 3 4 4 4 3 4 7 9 10 10 7 6 6 6 6 7 6 5 3 1 1 0 0 0 0 0 0
17 18 21 22 20 18 15 12 11 9 6 5 6 4 2 2 2 2 1 1 1 2 5 6 9 10 8 8 8 6 7 8 7 5 4 2 1 0 0 0 0 0 0
15 19 23 25 25 25 21 15 13 12 9 7 7 5 3 2 2 1 1 1 2 2 3 5 8 10 9 8 8 6 5 5 5 4 4 3 2 1 0 0 1 0 0
17 19 22 25 27 27 25 20 17 15 12 10 8 5 3 3 2 1 2 3 4 5 5 6 8 10 10 8 7 5 3 2 3 3 3 3 2 1 0 0 0 0 0
22 21 21 22 24 25 24 22 19 17 16 13 9 7 5 3 2 1 2 3 4 6 7 7 7 8 9 8 6 4 2 1 1 2 2 2 1 0 0 0 1 1 1
25 24 21 20 21 22 21 20 18 18 18 15 11 10 8 4 2 1 1 1 2 5 7 7 8 9 9 8 6 4 2 1 0 1 1 1 0 0 0 1 2 2 2
25 25 23 21 21 21 19 18 17 17 17 15 12 11 10 6 3 2 0 0 1 3 5 7 10 11 10 8 7 5 3 1 0 0 0 0 0 0 0 1 1 1 1
22 24 25 25 24 21 19 18 17 16 16 15 13 13 11 7 4 3 1 1 1 1 2 4 7 9 9 7 6 6 5 2 0 0 0 0 0 0 0 0 0 0 0
21 24 27 27 25 23 20 19 18 16 14 14 14 13 11 6 4 5 4 3 3 1 1 1 3 6 8 5 4 6 6 2 0 0 0 0 0 0 0 0 0 0 0
20 23 25 26 26 25 24 22 20 17 15 14 13 12 9 6 5 6 6 4 2 1 0 0 1 5 8 5 3 5 5 2 0 0 0 0 0 0 0 0 0 0 0
20 21 22 24 25 27 27 26 23 20 17 16 14 12 10 8 8 7 6 4 2 1 1 0 1 4 8 7 4 4 4 2 1 1 0 0 0 0 0 0 0 0 0
22 21 21 22 24 26 28 27 25 22 20 19 18 15 13 12 11 8 6 4 2 1 1 1 1 3 6 7 6 4 3 3 2 1 0 0 0 0 0 0 0 0 0
23 22 22 22 23 25 25 24 24 22 21 20 20 19 16 13 11 8 6 5 5 3 2 1 1 3 4 6 7 5 3 4 3 1 1 1 1 0 0 0 0 0 0
20 20 20 21 22 22 21 21 21 21 21 20 19 18 15 10 7 5 5 6 6 5 3 1 1 1 3 5 7 6 4 4 3 3 3 3 2 1 0 0 0 0 0
16 16 15 16 17 16 15 14 16 18 20 18 17 16 13 8 4 2 2 3 4 3 1 1 0 0 2 4 5 5 4 3 3 4 5 4 3 2 2 2 1 0 0
16 15 13 12 13 12 8 7 9 14 16 16 15 15 11 7 4 3 2 1 1 0 0 1 1 1 2 5 5 3 3 4 4 4 5 4 3 3 4 3 1 0 0
19 17 15 14 13 10 5 2 3 8 12 13 14 14 11 8 6 5 4 3 2 1 0 1 2 2 3 5 5 3 3 4 4 4 4 3 3 2 3 3 1 0 0
20 19 18 17 14 10 4 1 2 6 10 12 13 12 9 7 5 4 5 6 5 3 2 1 1 1 1 2 3 4 3 3 2 3 3 2 1 1 2 2 1 0 0
20 20 20 19 16 10 4 1 2 6 10 12 13 11 7 5 3 2 5 8 7 6 3 2 1 0 0 0 1 3 3 1 1 2 3 1 0 0 1 1 1 0 0
Wind_Speed
1 1 1 1 1 1 1 1 0 1 1 2 2 1 2 2 3 4 4 8 8 7 6 6 6 6 6 6 6 6 6 6 7 6 6 5 5 4 4 3 4 4 4
1 1 1 0 0 0 0 0 0 1 1 1 2 1 1 1 2 3 4 5 7 6 6 6 6 6 6 6 6 6 5 6 6 6 6 5 5 5 4 3 4 4 4
1 1 1 0 0 1 1 0 1 1 1 1 1 1 1 0 1 2 3 4 5 6 6 6 6 6 6 6 6 6 6 6 6 6 6 5 5 5 4 4 4 4 4
2 1 1 0 0 0 0 1 1 1 0 1 1 1 1 1 2 2 2 3 4 5 6 7 6 6 6 7 7 6 6 6 6 6 6 6 5 5 4 4 4 4 4
2 1 1 0 1 0 0 1 0 0 1 1 2 2 2 2 2 2 2 3 3 4 5 6 7 7 7 7 7 7 7 7 6 6 6 6 5 5 5 4 4 4 4
2 1 1 1 1 0 0 0 1 1 1 2 3 2 1 1 2 2 2 2 2 3 5 6 5 5 7 8 7 7 7 6 6 6 6 6 5 5 4 4 5 5 5
2 1 0 1 1 1 1 1 1 1 2 1 1 2 2 2 2 2 2 2 2 2 3 5 4 4 4 7 7 7 7 6 6 6 6 6 5 4 4 4 4 5 5
3 3 2 2 2 2 2 1 1 1 2 1 1 1 1 1 1 2 2 3 3 2 3 4 4 4 4 4 6 8 7 6 6 6 6 6 5 5 5 5 5 5 5
3 2 2 2 2 2 2 2 2 2 2 2 1 1 0 0 1 0 2 2 2 2 2 2 4 4 4 4 5 7 8 7 6 6 5 5 5 5 5 5 5 5 5
2 3 2 2 2 1 1 2 2 2 2 2 1 1 1 1 1 0 1 1 2 2 2 2 3 4 4 4 5 8 9 7 7 6 5 5 4 5 5 4 4 5 4
2 2 2 1 1 1 1 1 1 1 1 2 1 1 2 1 2 1 1 1 1 1 2 2 2 3 4 5 5 7 8 7 6 6 5 5 4 4 5 5 5 5 5
2 3 2 2 1 1 1 1 1 2 2 2 1 2 2 1 1 1 1 1 1 2 2 2 2 3 4 4 6 10 10 8 6 6 5 4 4 4 4 4 5 5 5
2 2 2 1 1 1 1 1 2 2 2 2 2 2 2 2 1 1 1 1 2 1 1 2 2 3 4 4 6 11 9 9 7 6 5 5 4 4 5 5 5 5 5
1 2 2 2 2 1 1 1 1 2 1 1 3 2 2 2 1 1 1 1 1 1 1 1 1 2 3 5 7 10 7 9 8 7 6 5 5 5 5 5 4 4 4
1 2 2 1 1 1 1 1 1 1 1 1 1 1 2 2 1 2 1 1 1 1 1 2 1 2 3 4 8 6 6 8 8 7 6 6 6 6 5 5 4 4 4
1 1 1 1 1 1 2 2 1 1 1 1 1 1 1 2 2 2 1 1 1 1 1 1 1 2 3 4 6 4 6 9 9 8 7 7 6 6 6 5 5 5 5
0 0 1 1 1 2 2 2 2 2 2 1 2 2 1 2 2 2 2 1 1 0 1 1 1 2 2 3 3 3 4 5 6 9 9 8 7 7 6 6 6 6 6
1 1 1 1 2 2 2 2 2 2 2 1 1 1 1 2 1 2 2 2 1 1 1 1 1 1 2 3 3 4 4 5 5 9 10 10 9 8 7 7 6 6 6
1 1 1 1 2 2 2 2 2 2 2 2 2 2 2 2 2 1 2 2 2 2 0 1 1 1 1 1 2 2 3 2 4 6 10 10 10 10 9 8 8 7 6
1 1 2 2 2 2 2 2 2 2 2 2 2 2 2 2 2 2 2 2 1 1 1 1 1 1 1 1 2 2 2 2 3 4 5 7 9 11 10 10 9 8 7
1 1 2 2 2 2 1 1 2 3 3 3 2 2 1 1 2 1 2 1 1 1 1 1 1 1 1 1 2 2 3 3 3 3 2 3 4 5 6 9 10 9 9
2 2 2 2 2 2 2 2 2 2 2 2 2 2 2 3 2 3 3 2 1 2 2 2 2 2 2 1 2 2 2 1 2 2 2 3 4 4 5 5 9 11 10
1 1 1 1 1 2 2 2 2 2 2 2 2 2 3 2 1 1 2 3 3 3 4 2 2 2 2 2 2 3 2 2 2 2 2 3 3 3 3 4 9 11 12
1 1 1 1 1 1 2 2 3 3 2 2 2 2 2 1 1 1 2 2 2 2 4 4 3 3 2 2 2 3 3 3 3 2 2 2 2 3 2 2 7 9 11
1 2 2 1 1 0 1 1 2 2 2 2 2 1 1 1 1 1 2 2 2 3 4 3 4 4 4 4 3 2 2 2 3 3 2 2 2 2 1 2 4 8 9
2 2 1 1 1 1 2 2 1 2 1 2 1 0 0 1 1 1 2 3 3 3 2 3 3 4 5 6 7 5 3 3 3 2 2 2 2 1 1 1 2 3 4
Wind_Direction
175 138 113 124 177 155 171 211 187 301 320 324 320 359 19 51 100 111 132 148 146 150 158 167 173 176 174 176 176 176 175 174 174 177 180 180 173 168 171 179 179 181 175
104 116 119 155 136 127 111 267 298 275 310 325 325 335 5 40 88 116 135 150 154 160 168 173 178 181 179 180 177 172 173 170 172 172 175 176 171 169 170 172 177 176 174
146 162 128 156 210 128 126 225 258 249 224 252 270 279 278 292 121 132 151 156 160 169 172 174 179 180 182 183 178 173 172 171 171 171 173 175 173 170 171 173 175 172 172
166 163 136 180 261 140 195 234 235 247 266 260 258 256 223 206 177 176 178 170 162 164 173 177 177 178 180 183 181 179 177 173 170 173 177 177 177 175 175 172 173 177 176
168 157 154 144 252 209 209 285 36 323 295 280 254 230 225 205 185 182 176 178 166 162 158 172 177 180 178 177 176 177 176 175 177 184 185 182 180 177 177 182 187 184 181
161 172 175 183 246 158 45 4 345 314 285 272 284 280 245 217 184 170 184 160 154 163 159 162 172 181 181 179 175 175 177 178 178 183 185 184 183 181 182 187 192 190 192
157 179 236 160 206 182 205 226 269 281 266 259 283 299 274 226 206 172 173 161 171 162 154 153 169 169 176 182 179 178 180 180 181 184 182 178 179 179 180 183 190 195 200
173 188 193 200 188 194 208 224 193 281 283 264 240 293 292 268 259 196 182 181 180 171 174 169 170 164 165 161 171 180 181 175 175 177 175 175 176 182 188 189 194 200 205
183 207 180 206 191 215 194 205 209 224 264 288 238 221 252 332 307 243 238 204 170 173 195 170 166 164 157 148 157 171 166 161 165 170 173 176 179 187 194 194 199 206 205
189 187 189 190 191 222 192 215 191 240 246 273 286 250 229 176 213 265 266 225 199 184 206 190 160 151 150 140 144 152 159 162 166 170 172 179 188 194 198 195 202 206 206
191 197 187 178 184 226 214 208 129 251 277 269 286 297 273 228 223 201 249 254 241 198 196 185 159 147 142 138 137 142 151 161 169 170 175 184 193 201 206 208 207 207 211
193 199 188 166 185 218 212 188 189 227 246 272 282 288 294 273 259 219 239 238 235 228 197 181 172 153 146 141 146 147 154 160 166 166 171 183 196 202 208 215 218 218 217
181 161 166 151 189 211 206 188 189 231 245 253 257 264 282 284 281 255 254 259 252 240 194 183 178 151 152 138 140 151 157 160 166 170 177 188 202 211 213 218 220 221 221
162 151 168 175 189 204 203 172 196 215 221 242 262 268 276 279 281 269 249 253 276 260 217 195 162 150 149 142 154 161 162 167 174 180 188 200 208 212 212 213 214 219 225
182 136 163 176 179 192 203 190 210 229 218 222 264 286 291 286 277 279 272 244 221 252 245 216 180 145 140 138 155 165 160 176 181 187 194 202 207 208 208 210 214 219 227
27 104 167 181 185 199 205 195 209 221 231 218 224 244 274 297 301 295 278 270 243 226 252 223 184 157 144 138 163 172 165 174 187 193 197 201 199 200 204 211 219 226 231
164 107 224 210 207 209 204 197 215 217 220 230 248 242 227 264 308 312 310 302 295 247 241 265 167 144 132 135 153 184 172 177 191 200 200 200 201 202 205 211 220 230 236
280 243 222 218 227 213 210 210 219 228 231 232 246 272 255 253 262 286 300 297 302 278 240 239 175 162 161 154 175 199 191 199 195 197 198 202 205 207 209 216 223 232 236
285 286 277 259 257 246 227 218 221 229 236 240 233 251 267 270 266 264 282 292 296 295 281 226 210 165 171 176 178 221 222 213 212 199 199 205 209 210 213 218 223 227 229
266 278 279 272 268 268 255 244 239 240 236 237 233 233 254 266 266 266 259 272 293 313 297 269 242 191 188 198 175 214 240 234 232 210 203 201 209 213 217 218 221 221 218
314 313 301 288 278 262 276 296 261 245 243 238 243 236 250 275 279 270 275 302 297 285 279 259 248 226 203 190 213 226 228 230 236 213 203 205 197 211 218 225 224 220 210
347 338 320 320 303 298 12 16 315 274 262 247 252 246 228 230 219 208 214 225 233 246 266 270 274 254 237 222 234 242 239 245 247 223 200 226 198 208 211 205 206 206 207
342 326 324 337 326 5 8 344 314 280 255 244 249 254 257 244 216 226 207 218 232 239 232 240 265 276 261 242 236 256 253 252 249 248 220 245 219 214 215 203 194 199 202
287 286 279 269 284 25 30 359 321 268 256 242 234 240 240 257 290 307 258 238 236 244 237 225 239 256 262 273 242 246 256 257 249 256 214 245 250 233 219 185 188 190 197
288 268 257 241 179 134 314 326 326 281 270 266 252 250 226 192 237 283 271 259 252 260 262 254 236 241 249 252 248 267 262 261 265 248 211 213 251 255 216 189 189 195 198
269 262 253 237 201 186 224 252 288 294 290 284 262 156 77 188 245 263 258 260 255 265 278 284 273 255 249 238 228 224 237 247 264 253 214 206 237 241 269 234 176 182 205